Location: Katzenstein
(51.7484°N, 10.2155°E)
Time: 15:29:26
(UTC+00:00)

MSX - Pass Details

Date: 17 February 2020
Orbit: 895 x 906 km, 98.8° (Epoch: 07 April)

Event Time Altitude Azimuth Distance (km) Brightness Sun altitude
Rises 03:43:22 0° 13° (NNE) 3,528 7.3 -26.4°
Reaches altitude 10° 03:45:47 10° 12° (NNE) 2,583 6.5 -26.0°
Maximum altitude 03:51:30 69° 290° (WNW) 960 3.7 -25.2°
Enters shadow 03:52:09 63° 250° (WSW) 997 3.7 -25.1°
